Wind_Speed
45 46 46 47 47 47 47 47 47 49 51 53 56 58 59 61 62 64 66 67 67 68 69 70 71 71 73 74 75 77 78 78 79 80 81 82 82 83 83 83 83 83
46 47 48 48 48 49 48 48 49 51 53 56 58 60 61 63 65 66 67 68 68 69 70 71 72 73 75 77 78 79 79 80 80 81 82 83 83 83 83 82 82 82
48 48 49 49 50 50 49 50 52 54 56 57 59 61 63 65 66 68 68 68 69 71 72 73 74 76 78 79 80 81 81 81 81 82 83 83 83 83 82 82 81 81
48 48 49 50 51 51 51 52 54 56 57 59 61 63 65 66 68 68 69 70 71 72 73 75 77 79 81 81 82 82 82 82 82 83 83 83 83 82 81 81 80 79
48 49 50 51 51 52 53 55 57 58 60 61 63 65 66 67 68 69 70 71 72 74 76 79 80 82 82 83 83 83 83 83 83 84 83 82 81 81 80 79 78 77
49 50 50 51 52 54 56 57 59 60 62 64 65 66 67 68 69 70 71 72 74 77 79 81 83 83 84 84 84 84 84 84 84 84 82 81 80 79 78 77 76 76
51 51 51 52 54 56 58 59 61 63 64 65 66 67 69 70 71 72 72 74 76 80 82 83 84 84 85 85 85 85 85 84 84 82 81 79 78 77 76 76 75 75
53 53 53 55 56 58 60 62 63 65 66 67 68 69 70 71 72 73 74 76 79 82 84 85 85 85 86 86 86 86 85 84 83 81 79 78 77 76 76 76 76 76
55 55 56 58 59 61 63 64 66 67 68 68 69 70 71 72 73 74 76 79 82 84 86 86 86 86 86 87 86 86 84 83 81 79 77 76 76 76 76 76 77 78
56 57 58 60 62 64 65 67 68 68 69 69 70 72 73 74 75 76 78 82 84 86 86 86 86 86 87 87 86 84 83 81 79 77 76 75 76 76 77 77 78 78
57 59 60 62 64 66 67 68 69 69 70 70 72 73 74 75 76 78 81 84 86 86 86 86 86 86 86 85 84 82 81 79 77 76 76 76 77 77 78 78 78 76
59 60 61 63 66 67 69 70 69 70 71 72 73 74 75 76 78 81 83 85 86 87 86 86 86 85 84 83 82 80 79 78 76 76 76 77 78 78 78 77 75 73
60 61 63 65 67 69 70 70 70 71 72 73 75 76 77 79 81 83 85 86 87 87 86 85 84 83 82 81 80 79 78 77 76 76 77 78 79 78 77 75 72 70
61 63 65 67 68 69 69 70 70 72 73 75 76 77 79 81 83 85 86 87 87 86 85 84 83 82 80 79 78 78 77 77 76 77 78 79 78 77 74 71 69 68
62 64 66 67 68 69 69 70 72 73 75 76 78 80 82 83 85 87 87 87 86 85 84 83 81 80 79 78 77 77 77 77 77 78 79 78 77 73 70 68 67 68
64 65 66 68 68 69 70 72 73 75 76 78 80 82 83 85 86 87 86 85 85 84 83 82 81 79 78 77 77 77 77 78 78 79 78 76 73 69 67 67 67 68
64 66 67 67 68 70 72 73 74 76 78 80 82 84 85 86 86 85 85 84 83 82 81 81 80 78 77 77 76 77 77 78 79 78 76 73 69 66 66 67 68 68
65 66 67 68 69 71 73 74 76 78 80 82 84 85 86 85 84 84 84 83 82 81 80 79 78 77 76 76 76 77 78 79 78 76 72 68 66 65 66 67 68 68
65 66 67 69 71 72 74 76 78 81 83 84 84 84 84 83 83 83 82 81 80 80 79 78 77 77 76 77 77 78 79 78 76 72 67 65 65 66 67 67 67 67
66 67 68 70 72 74 76 78 81 82 83 83 83 83 82 83 83 82 81 80 79 78 77 76 77 77 77 78 79 79 78 76 72 67 64 64 65 66 66 67 67 66
67 68 70 71 73 76 78 80 81 82 82 82 82 82 82 82 81 80 79 79 78 77 76 76 77 77 78 79 79 78 77 73 67 63 63 64 65 65 66 66 65 64
68 70 72 74 76 78 79 79 80 81 81 81 81 81 81 81 79 78 78 77 77 76 76 77 78 79 79 79 79 77 74 68 63 62 63 64 65 65 65 64 64 63
71 73 75 76 77 78 78 78 79 80 81 81 80 80 80 79 78 77 77 77 76 76 76 78 79 80 79 79 77 74 69 63 61 62 63 64 65 64 64 63 62 62
74 75 75 76 77 77 77 78 79 80 80 79 79 78 78 77 77 77 76 76 76 77 78 79 80 80 78 77 74 69 64 61 61 63 64 64 64 64 63 62 61 60
74 75 76 76 77 77 77 78 79 79 78 78 77 77 76 76 76 75 75 76 77 78 79 80 80 79 76 73 69 65 62 61 62 63 64 64 64 63 62 61 60 59
74 75 76 77 77 77 77 78 78 77 77 77 76 76 75 75 74 75 76 77 78 79 80 79 78 76 73 69 65 63 62 63 63 64 64 64 63 62 61 60 60 59
Wind_Direction
288 290 291 293 295 296 296 297 297 298 299 299 301 302 304 305 306 307 307 306 305 304 304 303 304 305 306 307 307 306 306 305 305 304 304 303 302 301 300 300 299 299
288 289 290 292 294 295 295 296 297 298 298 299 301 302 304 305 306 306 305 305 304 303 303 304 305 306 307 307 306 306 305 305 304 304 303 302 301 301 300 300 300 299
286 288 290 292 293 294 294 295 296 297 298 299 301 302 304 304 304 304 304 303 303 303 305 306 307 307 307 306 306 305 305 304 303 303 302 301 301 300 300 300 300 300
286 287 289 291 293 294 294 295 296 297 298 299 301 302 303 303 303 303 303 303 304 305 307 308 308 307 306 306 305 305 304 303 303 302 301 301 301 301 301 301 300 299
285 287 289 292 294 294 295 295 296 298 299 300 301 302 302 302 302 302 302 303 305 307 308 308 308 307 306 305 305 304 303 303 302 301 301 301 301 301 301 300 299 299
285 288 291 293 295 295 295 296 297 298 300 301 301 301 301 301 301 302 303 304 306 308 309 308 307 306 305 305 304 303 303 302 301 301 301 301 301 301 300 300 299 299
287 290 293 295 296 296 297 297 298 299 300 301 301 300 300 301 301 302 303 305 307 308 308 308 306 305 304 304 303 303 302 301 301 301 301 301 301 301 300 300 300 300
288 291 293 295 296 297 298 297 298 299 300 300 299 299 300 300 301 302 304 305 307 308 308 307 305 304 303 303 302 302 302 301 301 302 302 302 302 301 301 301 301 302
288 290 292 294 297 298 298 297 298 299 299 299 299 299 299 300 301 303 304 305 307 307 307 305 304 303 302 302 302 302 301 302 302 302 302 302 302 302 302 302 303 304
288 290 293 296 297 297 297 297 298 298 298 298 298 299 299 300 302 303 304 305 306 306 305 304 303 302 302 302 302 302 302 302 303 303 303 303 302 303 303 304 304 305
290 292 295 296 297 296 297 297 297 297 298 298 298 298 299 301 302 303 304 304 305 304 303 302 302 302 302 302 302 302 302 303 303 303 303 303 303 304 304 305 305 305
291 294 295 296 296 296 296 296 297 297 298 298 298 299 300 301 302 303 303 304 303 303 302 302 301 301 301 301 302 302 302 303 303 303 304 304 304 304 305 305 305 305
293 294 295 295 295 295 296 296 297 297 297 298 298 299 301 302 302 303 303 303 302 302 302 301 301 301 301 302 302 302 303 303 303 304 304 304 304 305 305 305 305 306
293 294 294 295 295 295 296 297 297 297 297 298 299 300 301 302 302 302 302 302 302 302 301 301 301 301 302 302 302 302 303 303 304 304 304 304 305 305 305 305 306 306
292 293 294 295 295 296 297 297 297 297 297 298 300 301 301 302 302 302 302 302 301 301 301 301 301 301 302 302 302 302 303 303 304 304 304 304 305 305 305 305 306 307
293 294 294 295 296 296 296 296 296 297 298 299 300 301 301 301 301 301 301 301 300 300 300 300 301 301 302 302 302 302 303 303 304 304 304 304 304 304 304 305 306 307
293 294 295 296 296 296 295 295 296 297 298 299 300 300 301 301 301 300 300 300 300 300 300 300 300 301 301 301 301 302 303 303 303 304 304 303 303 303 304 306 306 306
294 295 296 296 295 294 294 295 296 298 298 299 300 300 300 300 300 299 299 299 299 299 299 300 300 300 300 301 301 302 302 303 303 303 302 302 302 303 304 305 306 306
295 295 295 294 293 293 294 296 297 298 299 299 299 299 299 298 298 298 298 298 298 298 299 299 299 299 300 300 301 301 302 302 303 302 301 301 302 303 304 305 305 306
294 294 293 292 292 293 295 296 297 298 299 299 298 297 297 297 297 297 297 297 297 298 298 299 299 299 300 300 300 300 301 301 301 299 299 301 302 303 303 304 305 306
293 292 291 292 293 294 296 296 297 297 297 297 296 296 296 295 296 296 296 296 297 297 298 298 298 299 299 299 299 300 300 300 299 298 299 300 301 302 303 304 305 306
290 290 291 292 294 295 296 296 296 296 295 295 295 295 294 294 295 295 295 295 296 297 297 297 298 298 298 298 299 299 299 298 297 297 299 300 301 302 303 304 305 306
289 290 292 293 295 295 295 294 294 294 294 294 293 293 293 293 294 294 294 295 296 296 296 296 297 297 297 297 298 298 297 296 296 297 298 299 300 302 303 304 305 306
290 291 293 294 295 294 294 293 292 292 292 292 292 292 292 292 293 293 294 295 295 295 295 295 295 296 296 297 297 295 295 295 296 297 298 299 301 302 303 305 305 306
291 293 294 294 293 293 292 291 291 291 291 290 290 290 291 291 292 293 293 294 294 294 294 294 295 295 296 296 295 294 294 295 296 297 298 300 301 302 304 305 305 305
292 293 293 292 291 291 290 289 289 289 289 289 289 290 290 291 291 292 292 293 293 293 293 294 294 295 295 294 293 293 294 295 296 297 299 300 301 303 304 305 305 304
Height
5784 5782 5781 5780 5779 5777 5776 5774 5773 5771 5770 5768 5766 5764 5761 5759 5756 5754 5752 5749 5747 5745 5742 5740 5737 5733 5730 5726 5722 5718 5715 5711 5707 5703 5699 5695 5691 5687 5682 5678 5674 5670
5778 5777 5775 5774 5773 5771 5770 5768 5767 5765 5763 5761 5759 5757 5754 5752 5749 5747 5745 5742 5740 5738 5735 5732 5728 5725 5721 5717 5713 5709 5705 5701 5697 5693 5689 5684 5681 5676 5672 5668 5663 5659
5772 5771 5770 5768 5767 5765 5764 5762 5760 5759 5757 5755 5752 5750 5747 5745 5742 5740 5738 5735 5733 5730 5727 5723 5720 5716 5712 5708 5704 5700 5696 5692 5688 5683 5679 5674 5670 5666 5662 5658 5653 5648
5767 5765 5764 5762 5761 5759 5758 5756 5754 5752 5750 5748 5745 5743 5740 5738 5735 5732 5730 5727 5725 5721 5718 5715 5711 5707 5703 5698 5694 5690 5686 5683 5678 5674 5669 5665 5660 5656 5652 5648 5643 5639
5761 5760 5758 5757 5755 5753 5751 5749 5747 5745 5743 5741 5738 5736 5733 5730 5727 5724 5722 5719 5716 5713 5709 5706 5702 5697 5693 5689 5685 5681 5677 5673 5668 5663 5659 5655 5651 5647 5642 5638 5634 5629
5755 5753 5752 5750 5748 5746 5745 5743 5741 5738 5736 5734 5731 5728 5725 5722 5719 5716 5714 5711 5707 5704 5700 5696 5692 5688 5684 5680 5676 5672 5668 5663 5658 5653 5649 5646 5642 5638 5633 5628 5624 5620
5749 5747 5745 5743 5741 5740 5738 5736 5734 5731 5729 5726 5723 5720 5717 5714 5711 5708 5705 5702 5699 5695 5691 5687 5683 5679 5674 5671 5667 5663 5658 5653 5648 5644 5640 5636 5633 5628 5624 5619 5615 5611
5742 5740 5738 5736 5734 5732 5730 5728 5726 5724 5722 5719 5715 5712 5709 5706 5703 5700 5697 5693 5690 5686 5682 5678 5674 5670 5665 5662 5658 5653 5648 5643 5639 5635 5631 5627 5623 5618 5614 5609 5605 5601
5735 5734 5731 5729 5727 5725 5723 5721 5719 5716 5714 5711 5707 5704 5700 5697 5694 5691 5688 5684 5681 5677 5673 5669 5665 5660 5656 5652 5648 5643 5638 5633 5629 5625 5621 5617 5613 5608 5604 5600 5595 5591
5728 5726 5724 5721 5719 5717 5715 5713 5711 5708 5705 5702 5699 5695 5692 5689 5686 5683 5679 5675 5672 5668 5664 5660 5655 5651 5647 5642 5637 5632 5628 5624 5620 5616 5612 5607 5603 5598 5594 5590 5586 5581
5720 5718 5715 5713 5711 5709 5707 5705 5703 5700 5697 5694 5690 5686 5683 5680 5677 5674 5670 5666 5662 5659 5655 5651 5646 5641 5637 5632 5627 5623 5618 5614 5610 5606 5602 5598 5593 5589 5585 5581 5576 5571
5712 5710 5707 5705 5703 5701 5699 5697 5694 5691 5688 5685 5681 5678 5675 5672 5669 5665 5661 5657 5653 5649 5645 5641 5636 5632 5627 5622 5618 5613 5609 5605 5601 5597 5593 5588 5584 5580 5576 5571 5567 5562
5704 5701 5699 5697 5695 5693 5690 5688 5685 5682 5679 5676 5673 5670 5667 5664 5660 5656 5652 5647 5643 5640 5636 5631 5626 5622 5617 5613 5609 5604 5600 5596 5592 5588 5583 5578 5574 5570 5566 5562 5558 5554
5695 5693 5691 5689 5687 5684 5682 5679 5676 5673 5670 5667 5664 5661 5658 5654 5650 5646 5641 5637 5633 5629 5625 5621 5617 5612 5608 5604 5600 5595 5591 5587 5583 5579 5574 5569 5565 5561 5557 5553 5550 5546
5687 5685 5684 5681 5679 5676 5673 5670 5667 5664 5661 5657 5654 5652 5648 5644 5640 5635 5631 5627 5623 5619 5615 5611 5607 5603 5599 5595 5591 5587 5583 5579 5575 5570 5565 5561 5556 5552 5549 5545 5542 5538
5680 5678 5676 5673 5670 5667 5664 5661 5658 5655 5651 5648 5645 5642 5638 5634 5629 5625 5621 5617 5613 5609 5605 5602 5598 5595 5591 5587 5582 5579 5575 5570 5566 5561 5556 5552 5549 5544 5540 5537 5534 5530
5672 5670 5667 5664 5661 5657 5654 5651 5648 5645 5642 5639 5636 5632 5628 5624 5619 5615 5611 5607 5603 5600 5596 5592 5589 5586 5582 5578 5574 5571 5566 5562 5557 5553 5548 5544 5541 5537 5533 5529 5526 5522
5664 5661 5658 5655 5651 5648 5645 5642 5639 5636 5633 5630 5626 5621 5617 5613 5609 5605 5601 5598 5595 5591 5587 5584 5581 5577 5574 5570 5566 5563 5558 5554 5549 5544 5541 5537 5533 5530 5526 5522 5518 5514
5655 5652 5649 5646 5642 5638 5636 5633 5630 5627 5623 5619 5615 5611 5607 5604 5600 5596 5592 5589 5586 5582 5578 5575 5572 5568 5565 5561 5558 5554 5551 5547 5542 5537 5533 5530 5526 5523 5518 5515 5511 5507
5646 5643 5640 5637 5633 5630 5627 5624 5620 5617 5614 5610 5606 5602 5598 5594 5590 5587 5584 5580 5577 5573 5570 5566 5562 5559 5556 5552 5549 5546 5543 5539 5535 5531 5527 5523 5519 5516 5512 5508 5504 5500
5637 5634 5631 5628 5625 5622 5618 5615 5611 5608 5604 5600 5596 5592 5588 5585 5581 5578 5575 5571 5568 5565 5561 5557 5553 5550 5547 5544 5540 5537 5534 5531 5528 5524 5520 5517 5513 5509 5505 5501 5497 5493
5628 5625 5622 5620 5617 5613 5609 5605 5601 5598 5594 5590 5587 5583 5579 5576 5573 5570 5566 5563 5560 5557 5553 5548 5544 5541 5539 5535 5532 5529 5526 5523 5520 5517 5513 5510 5506 5502 5498 5494 5490 5486
5619 5617 5614 5611 5608 5604 5600 5596 5592 5588 5584 5581 5577 5574 5570 5567 5564 5560 5557 5554 5551 5548 5544 5540 5535 5532 5530 5526 5523 5520 5518 5515 5512 5509 5506 5502 5498 5495 5491 5487 5483 5478
5611 5608 5606 5602 5599 5595 5591 5586 5582 5578 5575 5572 5568 5565 5562 5558 5555 5551 5548 5545 5542 5539 5535 5531 5527 5523 5521 5518 5514 5512 5510 5507 5504 5501 5498 5494 5490 5487 5484 5480 5476 5471
5602 5599 5596 5593 5589 5586 5581 5577 5573 5569 5565 5562 5559 5556 5553 5549 5546 5543 5540 5536 5533 5530 5526 5522 5518 5514 5512 5510 5506 5503 5501 5499 5497 5494 5490 5486 5483 5480 5477 5473 5469 5465
5593 5590 5587 5583 5580 5576 5571 5568 5564 5560 5556 5553 5550 5547 5544 5541 5538 5534 5531 5528 5524 5520 5517 5513 5509 5505 5503 5501 5498 5494 5493 5491 5489 5485 5482 5478 5476 5473 5469 5466 5462 5458